User: anonymous   Login
Location: Caltech
(34.1382°N, 118.1253°W)
Time: 16:07:20
(UTC-08:00)
Language:

deb Explorer IX - Orbit

View from above orbital plane
View from above orbital plane
View from above satellite
View from above satellite

Ground track
Ground track

The orbit data is extracted from the following two-line orbital elements,

1 00085U 61004C   15065.51839727  .00034996  00000-0  83341-2 0  9995
2 00085 038.7728 095.2328 0428155 308.5881 047.7239 14.09574120657167
Epoch (UTC): 06 March 2015 12:26:29
Eccentricity: 0.0428155
inclination: 38.7728°
perigee height: 551 km
apogee height: 1171 km
right ascension of ascending node: 95.2328°
argument of perigee: 308.5881°
revolutions per day: 14.09574120
mean anomaly at epoch: 47.7239°
orbit number at epoch: 65716

The dashed part of the orbit path shows where the satellite is in the earth's shadow,  

DLR